Regional Weather Roundup
Issued by NWS

Home | Current Version | Previous Version | Graphics & Text | Print | Product List | Glossary On
Versions: 1 2 3 4 5 6 7 8 9 10 11 12 13 14 15 16 17 18 19 20 21 22 23 24 25 26 27 28 29 30 31 32 33 34 35 36 37 38 39 40 41 42 43 44 45 46 47 48 49 50
685
ASUS44 KLIX 282110
RWRLA
LOUISIANA WEATHER ROUNDUP
NATIONAL WEATHER SERVICE NEW ORLEANS LA
400 PM CDT MON JUL 28 2014

NOTE: "FAIR" INDICATES FEW OR NO CLOUDS BELOW 12,000 FEET WITH NO
      SIGNIFICANT WEATHER AND/OR OBSTRUCTIONS TO VISIBILITY.
      SKY/WX - SKY CONDITION AND SIGNIFICANT WEATHER.
      TMP - AIR TEMPERATURE.    DP   - DEWPOINT TEMPERATURE.
      RH  - RELATIVE HUMIDITY.  PRES - PRESSURE.
      HX  - HEAT INDEX.         WCI  - WIND CHILL INDEX.

*  THESE STATIONS ARE NOT NWS OR FAA STATIONS AND ARE NOT UNDER
   NWS QUALITY CONTROL.

LAZ040-048-061>063-065-066-069-282200-
SOUTHEAST LOUISIANA

CITY           SKY/WX    TMP DP  RH WIND       PRES   REMARKS
N.O. AUDUBON     N/A     93  76  56 MISG        N/A  HX 105
N.O. INTL ARPT PTSUNNY   92  74  55 W15       30.01F HX 101
N.O. LAKEFRONT PTSUNNY   90  77  65 W13       30.02F HX 103
N.O. DOWNTOWN* MOCLDY    93  73  52 NW6       30.01F HX 102
SLIDELL        PTSUNNY   88  77  69 SW6       30.00F HX 100
BATON ROUGE    MOSUNNY   93  77  59 W10       30.03F HX 107
BOOTHVILLE     SUNNY     88  79  74 SW16      30.03F HX 103
BELLE CHASSE   PTSUNNY   91  72  53 W5        30.00F HX  98
BOGALUSA*      FAIR      92  75  56 W9        30.01F HX 102
GALLIANO*      NOT AVBL
NEW ROADS*     FAIR      91  77  62 W7        30.02F HX 104
GONZALES*      FAIR      91  77  64 W7        30.03S HX 104
HAMMOND*       PTSUNNY   95  72  46 W10       30.02F HX 103
HOUMA*         MOSUNNY   93  68  43 W9        30.04S HX  97
PORT FOURCHON* CLEAR     90  77  66 W16G24    30.05F HX 102

$$

LAZ041-044-053-054-282200-
SOUTHWEST LOUISIANA

CITY           SKY/WX    TMP DP  RH WIND       PRES   REMARKS
LAKE CHARLES   MOSUNNY   93  73  52 W6        30.04F HX 102
LAFAYETTE      NOT AVBL
PATTERSON      PTSUNNY   90  75  62 W12       30.09S HX 100
SALT POINT       N/A     93  78  61 W6        30.04F HX 108
NEW IBERIA     CLOUDY    91  76  61 W10       30.05F HX 103
CHENAULT AIRPK MOSUNNY   93  72  49 NW8       30.05F HX 100

$$

LAZ027-028-282200-
CENTRAL LOUISIANA

CITY           SKY/WX    TMP DP  RH WIND       PRES   REMARKS
FORT POLK      MOSUNNY   92  73  53 W12       30.04F HX 100
ALEXANDRIA INT SUNNY     94  74  52 W8        30.00F HX 104
ALEXANDRIA     MOSUNNY   96  76  52 W14       30.02F HX 109

$$

LAZ001-002-282200-
NORTHWEST LOUISIANA

CITY           SKY/WX    TMP DP  RH WIND       PRES   REMARKS
SHREVEPORT     PTSUNNY   92  72  51 NW9       30.04F HX  99
BARKSDALE AFB  MOSUNNY   92  71  50 N3        30.05F HX  98
DTN SHREVEPORT MOSUNNY   92  69  47 N7        30.05F HX  97

$$

LAZ014-016-282200-
NORTHEAST LOUISIANA

CITY           SKY/WX    TMP DP  RH WIND       PRES   REMARKS
MONROE         MOSUNNY   91  69  48 N9        30.04F HX  96
TALLULAH       SUNNY     90  69  50 NW7       30.02F

$$




USA.gov is the U.S. government's official web portal to all federal, state and local government web resources and services.